Startpagina
METAR-TAF:

METAR-TAF

Vliegvelden :

Arauca, Colombia

breedte: 07-04N, lengte: 070-44W, hoogte: 128 m

Actueel weer

Dit bericht is 10 uur en het 17 minuten geleden gemaakt, om 22:00 UTC
Wind 3 kt uit het oosten
Temperatuur 29°C
Vochtigheid 74%
Druk 1007 hPa
Zicht 10 km of meer
geen wolken onder 1500 m en geen cumulonimbus

METAR: SKUC 142200Z 08003KT CAVOK 29/24 A2974

Tijdstip: 03:17 (08:17 UTC)


TAF: ontbreekt

Waarnemingen en weersverwachtingen van meer dan 4000 vliegvelden (METAR en TAF).

De beschikbare stations zijn de gele en rode punten op de kaart.

Ga met uw muis naar het station om de naam te zien.

Klik dan om waarnemingen en weersverwachtingen te zien.

kaart wijzigen: klik op de groene knoppen met een zwart kruis om in te zoomen, op de groene knop met een streepje om uit te zoomen of op de groene pijlen voor aangrenzende kaarten.


METAR-TAF: